Location: Roc des P�zouls
(43.9667°N, 3.5500°E)
Time: 22:01:44
(UTC+00:00)

Helios 1A Rocket - Pass Details

Date: 14 November 2019
Orbit: 564 x 587 km, 98.3° (Epoch: 07 December)

Event Time Altitude Azimuth Distance (km) Brightness Sun altitude
Rises 05:10:33 0° 16° (NNE) 2,812 6.5 -15.9°
Reaches altitude 10° 05:12:44 10° 19° (NNE) 1,904 5.7 -15.6°
Maximum altitude 05:16:51 67° 102° (ESE) 630 3.3 -14.8°
Drops below altitude 10° 05:20:53 10° 185° (S) 1,874 5.6 -14.1°
Sets 05:23:01 0° 188° (S) 2,763 6.5 -13.7°
